Regional Weather Roundup
Issued by NWS Northern Indiana

Home | Current Version | Previous Version | Text Only | Print | Product List | Glossary Off
Versions: 1 2 3 4 5 6 7 8 9 10 11 12 13 14 15 16 17 18 19 20 21 22 23 24 25 26 27 28 29 30 31 32 33 34 35 36 37 38 39 40 41 42 43 44 45 46 47 48 49 50

000
ASUS43 KIWX 280700
RWRIWX

KIWX WEATHER ROUNDUP
NATIONAL WEATHER SERVICE NORTHERN INDIANA
300 AM EDT TUE APR 28 2015

NOTE: "FAIR" INDICATES FEW OR NO CLOUDS BELOW 12,000 FEET WITH NO
SIGNIFICANT WEATHER AND/OR OBSTRUCTIONS TO VISIBILITY.

* THESE STATIONS ARE NOT UNDER NWS QUALITY CONTROL. THEY ALSO MAY NOT
  REPORT WEATHER SUCH AS PRECIPITATION OR FOG.

INZ001>027-280800-
NORTHERN INDIANA

CITY           SKY/WX    TMP DP  RH WIND       PRES   REMARKS
SOUTH BEND     CLEAR     35  31  85 NW6       30.11S WCI  30
GOSHEN         CLEAR     35  32  88 CALM      30.09F
ANGOLA*        CLEAR     32  30  93 CALM      30.08F
FORT WAYNE     CLEAR     34  31  88 CALM      30.10S
PERU/GRISSOM   CLEAR     38  34  85 E6        30.09S

$$
INZ028>050-280800-
CENTRAL INDIANA

CITY           SKY/WX    TMP DP  RH WIND       PRES   REMARKS
LAFAYETTE      CLEAR     37  34  89 W3        30.10R
KOKOMO*        CLEAR     37  30  75 CALM      30.09S
MUNCIE*        CLEAR     38  34  85 CALM      30.09S
INDIANAPOLIS   CLEAR     44  35  70 E8        30.07S

$$
MIZ043>046-050>051-056>058-064>065-071>073-077>080-280800-
SOUTHWEST LOWER MICHIGAN

CITY           SKY/WX    TMP DP  RH WIND       PRES   REMARKS
BATTLE CREEK   CLEAR     37  32  82 CALM      30.09S
BENTON HARBOR  CLEAR     33  31  92 CALM      30.10F
COLDWATER*     CLEAR     32  30  92 W6        30.08F WCI  26
HILLSDALE*     CLEAR     35  35  99 CALM      30.08S
HOLLAND        CLEAR     38  34  85 CALM      30.10F
GRAND RAPIDS   CLEAR     38  33  82 E3        30.09S
KALAMAZOO      CLEAR     37  33  85 CALM      30.09S
STURGIS*       CLEAR     36  32  87 CALM      30.08F
THREE RIVERS*  FAIR      34  32  91 CALM      30.10S

$$
OHZ001>008-015>018-024>025-280800-
NORTHWEST OHIO

CITY           SKY/WX    TMP DP  RH WIND       PRES   REMARKS
DEFIANCE       CLEAR     34  30  85 CALM      30.10S
FINDLAY        CLEAR     35  31  85 S3        30.07F
TOLEDO EXPRESS CLEAR     34  31  88 CALM      30.08F
TOLEDO METCALF PTCLDY    37  32  82 N3        30.09F
LIMA           CLEAR     36  32  85 CALM      30.08S

$$
AND FOR LAKE MICHIGAN COASTAL AND OPEN LAKE BUOY OBSERVATIONS

STATION/POSITION TEMP    WIND        PRES    VSBY  WAVE
                 AIR SEA DIR/SP/G                  HT/PER
                 (F)     (DEG/KT/KT) (MB)    (MI)  (FT/S)
CALUMET HARBOR    40     340/  3/  3   N/A
MICHIGAN CITY     41      10/  2/  3   N/A
BURNS HARBOR      42     350/  3/  5 1020.3S
SAINT JOSEPH      40     310/  2/  5 1019.6F
MICHIGAN CITY     40 46  350/  4/  6   N/A           2/ 5

$$
&&



USA.gov is the U.S. government's official web portal to all federal, state and local government web resources and services.